Weather History for Keahole Point, HI

Change the Weather History Date:

Saturday, November 13, 2010

  Actual Average Record
Temperature  
Mean Temperature 77 °F -  
Max Temperature 82 °F 82 °F 90 °F (1983)
Min Temperature 72 °F 70 °F 68 °F (1993)
Cooling Degree Days 12    
Growing Degree Days 27 (Base 50)    
Moisture  
Dew Point 64 °F    
Average Humidity 62    
Maximum Humidity 73    
Minimum Humidity 56    
Precipitation  
Precipitation 0.00 in - - ()
Sea Level Pressure  
Sea Level Pressure 30.02 in    
Wind  
Wind Speed 6 mph (SSE)    
Max Wind Speed 15 mph    
Max Gust Speed -    
Visibility 10 miles    
Events      
Averages and records for this station are not official NWS values.
T = Trace of Precipitation, MM = Missing Value Source: NWS Daily Summary

Daily Weather History Graph

Daily Weather History Graph

Search for Another Location

Airport:

Trip Planner

Search our weather history database for the weather conditions in past years. The results will help you decide how hot, cold, wet, or windy it might be!

Date:

Astronomy

Nov. 13, 2010 Rise Set
Actual Time 6:31 AM HST 5:45 PM HST
Civil Twilight 6:08 AM HST 6:08 PM HST
Nautical Twilight 5:41 AM HST 6:34 PM HST
Astronomical Twilight 5:15 AM HST 7:01 PM HST
Moon 12:48 PM HST (11/13) No Moon Set
Length of Visible Light 11h 59m
Length of Day
11h 13m
First Quarter, 52% of the Moon is Illuminated
Nov 13
First Quarter
Nov 21
Full
Nov 28
Last Quarter
Dec 5
New
Dec 13
First Quarter

Hourly Weather History & Observations

Time (HST) Temp. Heat Index Dew Point Humidity Pressure Visibility Wind Dir Wind Speed Gust Speed Precip Events Conditions
12:53 AM 73.9 °F - 64.9 °F 73% 30.06 in 10.0 mi ENE 3.5 mph - N/A   Clear
1:53 AM 73.0 °F - 63.0 °F 71% 30.04 in 10.0 mi ENE 4.6 mph - N/A   Clear
2:53 AM 73.0 °F - 62.1 °F 68% 30.04 in 10.0 mi ENE 4.6 mph - N/A   Clear
3:53 AM 72.0 °F - 62.1 °F 71% 30.03 in 10.0 mi SE 3.5 mph - N/A   Clear
4:53 AM 73.0 °F - 60.1 °F 64% 30.02 in 10.0 mi East 6.9 mph - N/A   Clear
5:53 AM 72.0 °F - 59.0 °F 64% 30.02 in 10.0 mi East 5.8 mph - N/A   Clear
6:53 AM 72.0 °F - 57.0 °F 59% 30.04 in 10.0 mi ESE 8.1 mph - N/A   Clear
7:53 AM 75.0 °F - 60.1 °F 60% 30.04 in 10.0 mi ESE 4.6 mph - N/A   Clear
8:53 AM 79.0 °F - 64.9 °F 62% 30.06 in 10.0 mi Calm Calm - N/A   Clear
9:53 AM 81.0 °F 82.7 °F 64.9 °F 58% 30.06 in 10.0 mi SSW 8.1 mph - N/A   Clear
10:53 AM 81.0 °F 83.0 °F 66.0 °F 60% 30.05 in 10.0 mi SSW 9.2 mph - N/A   Clear
11:53 AM 82.0 °F 84.1 °F 66.0 °F 58% 30.03 in 10.0 mi WSW 9.2 mph - N/A   Clear
12:53 PM 82.0 °F 84.9 °F 68.0 °F 62% 30.00 in 10.0 mi WSW 8.1 mph - N/A   Clear
1:53 PM 82.9 °F 85.8 °F 68.0 °F 60% 29.99 in 10.0 mi West 8.1 mph - N/A   Clear
2:53 PM 82.0 °F 84.9 °F 68.0 °F 62% 29.97 in 10.0 mi WNW 12.7 mph - N/A   Overcast
3:53 PM 82.0 °F 84.1 °F 66.0 °F 58% 29.97 in 10.0 mi WNW 8.1 mph - N/A   Overcast
4:53 PM 81.0 °F 82.7 °F 64.9 °F 58% 29.98 in 10.0 mi West 5.8 mph - N/A   Clear
5:53 PM 79.0 °F - 64.9 °F 62% 29.99 in 10.0 mi Variable 3.5 mph - N/A   Clear
6:53 PM 79.0 °F - 66.0 °F 64% 30.01 in 10.0 mi SE 9.2 mph - N/A   Clear
7:53 PM 78.1 °F - 64.9 °F 64% 30.02 in 10.0 mi SE 11.5 mph - N/A   Clear
8:53 PM 77.0 °F - 64.0 °F 64% 30.03 in 10.0 mi SSE 10.4 mph - N/A   Clear
9:53 PM 78.1 °F - 64.9 °F 64% 30.05 in 10.0 mi SSE 15.0 mph - N/A   Clear
10:53 PM 77.0 °F - 60.1 °F 56% 30.05 in 10.0 mi SE 9.2 mph - N/A   Clear
11:53 PM 77.0 °F - 60.1 °F 56% 30.04 in 10.0 mi ESE 4.6 mph - N/A   Clear